Location: Observatoire de Paris
(48.8363°N, 2.3365°E)
Time: 04:02:06
(UTC+01:00)

Vanguard 3 - Pass Details

Date: 07 August 2021
Orbit: 510 x 3260 km, 33.3° (Epoch: 18 September)

Event Time Altitude Azimuth Distance (km) Brightness Sun altitude
Rises 20:21:05 0° 262° (W) 5,644 12.5 -1.1°
Reaches altitude 10° 20:24:35 10° 256° (WSW) 4,966 12.0 -1.6°
Maximum altitude 20:38:39 43° 192° (SSW) 3,838 10.4 -3.6°
Drops below altitude 10° 20:56:23 10° 130° (SE) 6,160 10.9 -6.1°
Enters shadow 20:58:04 - 128° (SE) 6,462 11.0 -6.3°
